Twin Falls, ID

5:32 PM MDT on August 30, 2016 (GMT -0600)
Joslin Field-Magic Valley Regional

Weather History for KTWF - August, 2014

Change the Weather History Date:

Monday, August 25, 2014

  Actual Average Record
Temperature  
Mean Temperature 63 °F -  
Max Temperature 71 °F 86 °F 99 °F (1988)
Min Temperature 54 °F 54 °F 37 °F (1992)
Degree Days  
Heating Degree Days 2 1  
Month to date heating degree days 16 3  
Since 1 June heating degree days 74 96  
Since 1 July heating degree days 16 9  
Cooling Degree Days 0 6  
Month to date cooling degree days 181 201  
Year to date cooling degree days 735 587  
Since 1 June cooling degree days 702 565  
Growing Degree Days 12 (Base 50)    
Moisture  
Dew Point 50 °F    
Average Humidity 69    
Maximum Humidity 86    
Minimum Humidity 51    
Precipitation  
Precipitation 0.05 in 0.01 in 0.05 in (2014)
Month to date precipitation 5.55 0.24  
Year to date precipitation 12.23 6.80  
Sea Level Pressure  
Sea Level Pressure 29.91 in    
Wind  
Wind Speed 9 mph (ENE)    
Max Wind Speed 21 mph    
Max Gust Speed 25 mph    
Visibility 10 miles    
Events Rain , Thunderstorm    
T = Trace of Precipitation, MM = Missing Value Source: NWS Daily Summary

Daily Weather History Graph

Daily Weather History Graph

Search for Another Location

Airport or City:

Trip Planner

Search our weather history database for the weather conditions in past years. The results will help you decide how hot, cold, wet, or windy it might be!

Date:

Astronomy

Aug. 25, 2014 Rise Set
Actual Time 6:55 AM MDT 8:23 PM MDT
Civil Twilight 6:26 AM MDT 8:52 PM MDT
Nautical Twilight 5:50 AM MDT 9:28 PM MDT
Astronomical Twilight 5:12 AM MDT 10:05 PM MDT
Moon 7:05 AM MDT (8/25) 8:14 PM MDT (8/25)
Length of Visible Light 14h 26m
Length of Day
13h 27m
New Moon, 0% of the Moon is Illuminated
Aug 25
New Moon
Sep 2
First Quarter
Sep 8
Full
Sep 15
Last Quarter
Sep 24
New

Hourly Weather History & Observations

Time (MDT) Temp. Dew Point Humidity Pressure Visibility Wind Dir Wind Speed Gust Speed Precip Events Conditions
12:53 AM 60.1 °F 46.9 °F 62% 29.82 in 10.0 mi SE 9.2 mph - N/A   Clear
1:53 AM 61.0 °F 48.0 °F 62% 29.82 in 10.0 mi East 4.6 mph - N/A   Mostly Cloudy
2:46 AM 60.1 °F 48.9 °F 67% 29.98 in 10.0 mi NW 9.2 mph - 0.01 in Rain , Thunderstorm Light Rain
2:53 AM 60.1 °F 46.9 °F 62% 29.84 in 10.0 mi WNW 11.5 mph - 0.01 in Thunderstorm Mostly Cloudy
3:05 AM 59.0 °F 46.9 °F 64% 29.99 in 10.0 mi NW 9.2 mph - N/A   Scattered Clouds
3:53 AM 55.9 °F 48.0 °F 75% 29.85 in 10.0 mi ENE 8.1 mph - N/A   Clear
4:53 AM 55.9 °F 48.9 °F 77% 29.84 in 10.0 mi East 12.7 mph - N/A   Clear
5:53 AM 57.0 °F 48.0 °F 72% 29.86 in 10.0 mi East 11.5 mph - N/A   Scattered Clouds
6:53 AM 55.0 °F 48.9 °F 80% 29.89 in 10.0 mi NNE 9.2 mph - 0.04 in   Overcast
8:53 AM 55.0 °F 50.0 °F 83% 29.93 in 10.0 mi NE 5.8 mph - N/A   Partly Cloudy
9:53 AM 55.9 °F 51.1 °F 84% 29.96 in 10.0 mi East 4.6 mph - N/A   Overcast
10:53 AM 57.0 °F 48.9 °F 74% 29.96 in 10.0 mi East 11.5 mph - N/A   Overcast
11:53 AM 63.0 °F 50.0 °F 63% 29.93 in 10.0 mi ENE 16.1 mph 23.0 mph N/A   Clear
12:53 PM 64.0 °F 48.9 °F 58% 29.92 in 10.0 mi ENE 16.1 mph - N/A   Clear
1:53 PM 66.9 °F 51.1 °F 57% 29.91 in 10.0 mi NE 15.0 mph - N/A   Scattered Clouds
2:53 PM 68.0 °F 52.0 °F 56% 29.90 in 10.0 mi ENE 11.5 mph 21.9 mph N/A   Scattered Clouds
3:53 PM 69.1 °F 52.0 °F 54% 29.88 in 10.0 mi NE 10.4 mph - N/A   Partly Cloudy
4:53 PM 70.0 °F 50.0 °F 49% 29.88 in 10.0 mi NNE 6.9 mph - N/A   Scattered Clouds
5:53 PM 66.9 °F 52.0 °F 59% 29.89 in 10.0 mi ENE 5.8 mph - N/A   Scattered Clouds
6:53 PM 66.0 °F 55.0 °F 68% 29.91 in 10.0 mi SE 5.8 mph - 0.00 in   Partly Cloudy
9:53 PM 61.0 °F 51.1 °F 70% 29.95 in 10.0 mi SSW 9.2 mph - N/A   Clear
10:53 PM 60.1 °F 51.1 °F 72% 29.98 in 10.0 mi South 8.1 mph - N/A   Clear
11:53 PM 60.1 °F 50.0 °F 69% 29.96 in 10.0 mi WSW 6.9 mph - N/A   Clear